Location: Albany
(35.0170°S, 117.8920°E)
Time: 21:02:23
(UTC+08:00)

A-11 Canister half - Pass Details

Date: 27 January 2021
Orbit: 1525 x 1684 km, 47.3° (Epoch: 03 March)

Event Time Altitude Azimuth Distance (km) Brightness Sun altitude
Rises 11:03:11 0° 252° (WSW) 4,794 11.4 66.0°
Reaches altitude 10° 11:08:32 10° 276° (W) 3,767 11.0 66.9°
Maximum altitude 11:12:33 13° 301° (WNW) 3,468 11.0 67.5°
Drops below altitude 10° 11:16:33 10° 327° (NNW) 3,711 11.2 68.1°
Sets 11:21:47 0° 352° (N) 4,665 11.7 68.8°
